OBJECT C, 63430

Orbit data source: Space-Track

You're viewing an Uncataloged Satellite

Recently launched and/or uncataloged satellites may have evolving metadata. Metadata may include but not limited to: Owner, Maufacturer, Bus, Motor, and Mission.

OBJECT C, 63430 is a satellite owned by Zhongguo Xingwang (CN) in LEO that was launched on Tue, 01 Apr 2025 UTC via a CHANG ZHENG 2D launch vehicle from the Jiuquan Satellite Launch Center, China (JSC). Unknown objects in Earth's orbit typically refer to objects detected orbiting the Earth but have not yet been identified or cataloged. These objects could be anything from previously untracked satellites, spent rocket stages, debris from satellite collisions, or even natural meteoroids temporarily captured by Earth's gravity.

Loading next visibility...
Identifier
63430, 2025-067C
Orbit
LEO
Last TLE update
7 hours ago
Origin
Manufacturer
Changguang WJ
Mission
Operational Civil Communications
Bus & Motor
Unknown
Mass
~300 kg wet, ~300 kg dry
Launch date (UTC)
2025-04-01 (3 months ago)
Launch vehicle
CHANG ZHENG 2D
Launch site
Jiuquan Satellite Launch Center, China (JSC)
Object type
Unknown
Shape & HBR
Box + 2 Pan, 2.5 m
Radar Cross Section
2.320 m², Large (>1 m²)

Expand to show TLE details & history

TLE from 7 hours ago
0 OBJECT C
1 63430U 25067C   25190.17801944  .00005959  00000-0  17020-3 0  9998
2 63430  54.9952 124.0318 0010135 163.8969 196.2382 15.37442341 15240
Epoch: 2025-07-09T04:16Z
TLE epoch observation values (Epoch: 2025-07-09T04:16:20.879Z)
Latitude
-0.00008°
Longitude
132.58237°
Altitude
461.423 km
Speed
7.633 km/s
True Right ascension
08h 16m 07s
True Declination
0° 00' 00"
Sunlit
Object was in daylight at epoch
Visualization orbit readout
Latitude
46.03606°
Longitude
177.59272°
Altitude
460.368 km
Speed
7.641 km/s
Apparent Right ascension
11h 06m 20s
Apparent Declination
4° 54' 35"
Sunlit
Object is in daylight
Visualization observer readout
Local Sidereal Time
22:56:47
Azimuth
356.63° N
Elevation
-45.12°
Doppler factor
1
Orbital elements
Apogee altitude
460.563 km
Perigee altitude
446.715 km
Semi-major axis
6,831.776 km
Eccentricity
0.00101
Inclination
54.9952°
RAAN
124.0318°
Arg. of periapsis
163.8969°
True anomaly
Unknown
Mean anomaly
196.2382°
Eccentric anomaly
Unknown
Mean motion
3.84364 °/min
Orbital period
93.66 mins
BSTAR
0.0001702
Loading maneuver chart data...
Loading SW <> Apogee altitude chart data...
Loading historical data...
Loading historical data...
Loading historical data...
Loading historical data...
Loading historical data...
Loading historical data...
Loading historical data...
Other satellites on launch #67 in the year 2025 (2025-04-01 UTC)

OBJECT C Visibility forecast

Observer location: undefined°, undefined°

Span
Click to sort rows by Start time (UTC) header in descending order
Start Az.
Max El. time (UTC)
Max El. Az.
Max El.
End time (UTC)
End Az.
5 mins2025-07-09 21:35:44.760Z193.479° SSW2025-07-09 21:38:44.760Z112.178° ESE29.954°2025-07-09 21:40:44.760Z68.912° E
4 mins2025-07-09 23:13:44.760Z282.628° WNW2025-07-09 23:15:44.760Z330.659° NNW23.133°2025-07-09 23:17:44.760Z15.483° NNE
4 mins2025-07-10 04:09:44.760Z356.377° N2025-07-10 04:10:44.760Z18.749° NNE20.165°2025-07-10 04:13:44.760Z81.438° E
5 mins2025-07-10 05:46:44.760Z289.929° WNW2025-07-10 05:48:44.760Z220.564° SW34.892°2025-07-10 05:51:44.760Z155.975° SSE
|